Time,TemperatureF,DewpointF,PressureIn,WindDirection,WindDirectionDegrees,WindSpeedMPH,WindSpeedGustMPH,Humidity,HourlyPrecipIn,Conditions,Clouds,dailyrainin,SolarRadiationWatts/m^2,SoftwareType,DateUTC
2013-08-23 00:00:00,54.0,52.0,-100.00,NNE,22,0.0,-999.0,94,-99.99,,,-99.99,0.000000,,2013-08-23 05:00:00,
2013-08-23 00:42:00,54.0,52.0,-100.00,NNE,22,0.0,-999.0,94,-99.99,,,-99.99,0.000000,,2013-08-23 05:42:00,
2013-08-23 00:52:00,54.0,52.0,-100.00,NNE,22,0.0,-999.0,94,-99.99,,,-99.99,0.000000,,2013-08-23 05:52:00,
2013-08-23 04:00:00,48.0,47.0,-100.00,NNE,22,0.0,-999.0,96,-99.99,,,-99.99,0.000000,,2013-08-23 09:00:00,
2013-08-23 04:43:00,48.0,47.0,-100.00,NNE,22,0.0,-999.0,96,-99.99,,,-99.99,0.000000,,2013-08-23 09:43:00,
2013-08-23 04:53:00,48.0,47.0,-100.00,NNE,22,0.0,-999.0,96,-99.99,,,-99.99,0.000000,,2013-08-23 09:53:00,
2013-08-23 05:00:00,49.0,48.0,-100.00,NNE,22,0.0,-999.0,96,-99.99,,,-99.99,0.000000,,2013-08-23 10:00:00,
2013-08-23 05:42:00,49.0,48.0,-100.00,NNE,22,0.0,-999.0,96,-99.99,,,-99.99,0.000000,,2013-08-23 10:42:00,
2013-08-23 05:53:00,49.0,48.0,-100.00,NNE,22,0.0,-999.0,96,-99.99,,,-99.99,0.000000,,2013-08-23 10:53:00,
2013-08-23 06:00:00,48.0,47.0,-100.00,NNE,22,0.0,-999.0,96,-99.99,,,-99.99,0.000000,,2013-08-23 11:00:00,
2013-08-23 06:42:00,48.0,47.0,-100.00,NNE,22,0.0,-999.0,96,-99.99,,,-99.99,0.000000,,2013-08-23 11:42:00,
2013-08-23 06:53:00,48.0,47.0,-100.00,NNE,22,0.0,-999.0,96,-99.99,,,-99.99,0.000000,,2013-08-23 11:53:00,
2013-08-23 07:00:00,49.0,48.0,-100.00,NNE,22,0.0,-999.0,96,-99.99,,,-99.99,12.760000,,2013-08-23 12:00:00,
2013-08-23 07:42:00,49.0,48.0,-100.00,NNE,22,0.0,-999.0,96,-99.99,,,-99.99,12.760000,,2013-08-23 12:42:00,
2013-08-23 07:52:00,49.0,48.0,-100.00,NNE,22,0.0,-999.0,96,-99.99,,,-99.99,12.760000,,2013-08-23 12:52:00,
2013-08-23 08:00:00,58.0,57.0,-100.00,NNE,22,1.0,-999.0,96,-99.99,,,-99.99,24.360001,,2013-08-23 13:00:00,
2013-08-23 08:42:00,58.0,57.0,-100.00,NNE,22,1.0,-999.0,96,-99.99,,,-99.99,24.360001,,2013-08-23 13:42:00,
2013-08-23 08:53:00,58.0,57.0,-100.00,NNE,22,1.0,-999.0,96,-99.99,,,-99.99,24.360001,,2013-08-23 13:53:00,
2013-08-23 09:00:00,64.0,58.0,-100.00,NNE,22,1.0,-999.0,81,-99.99,,,-99.99,31.320000,,2013-08-23 14:00:00,
2013-08-23 09:42:00,64.0,58.0,-100.00,NNE,22,1.0,-999.0,81,-99.99,,,-99.99,31.320000,,2013-08-23 14:42:00,
2013-08-23 09:52:00,64.0,58.0,-100.00,NNE,22,1.0,-999.0,81,-99.99,,,-99.99,31.320000,,2013-08-23 14:52:00,
2013-08-23 10:00:00,68.0,58.0,-100.00,North,0,3.0,-999.0,72,-99.99,,,-99.99,346.839996,,2013-08-23 15:00:00,
2013-08-23 10:44:00,68.0,58.0,-100.00,North,0,3.0,-999.0,72,-99.99,,,-99.99,346.839996,,2013-08-23 15:44:00,
2013-08-23 10:54:00,68.0,58.0,-100.00,North,0,3.0,-999.0,72,-99.99,,,-99.99,346.839996,,2013-08-23 15:54:00,
2013-08-23 11:00:00,70.0,59.0,-100.00,NNW,337,3.0,-999.0,66,-99.99,,,-99.99,661.200012,,2013-08-23 16:00:00,
2013-08-23 11:42:00,70.0,59.0,-100.00,NNW,337,3.0,-999.0,66,-99.99,,,-99.99,661.200012,,2013-08-23 16:42:00,
2013-08-23 11:53:00,70.0,59.0,-100.00,NNW,337,3.0,-999.0,66,-99.99,,,-99.99,661.200012,,2013-08-23 16:53:00,
2013-08-23 12:00:00,71.0,58.0,-100.00,North,0,4.0,-999.0,63,-99.99,,,-99.99,762.119995,,2013-08-23 17:00:00,
2013-08-23 12:43:00,71.0,58.0,-100.00,North,0,4.0,-999.0,63,-99.99,,,-99.99,762.119995,,2013-08-23 17:43:00,
2013-08-23 12:54:00,71.0,58.0,-100.00,North,0,4.0,-999.0,63,-99.99,,,-99.99,762.119995,,2013-08-23 17:54:00,
2013-08-23 13:00:00,74.0,59.0,-100.00,ENE,67,2.0,-999.0,58,-99.99,,,-99.99,664.679993,,2013-08-23 18:00:00,
2013-08-23 13:42:00,74.0,59.0,-100.00,ENE,67,2.0,-999.0,58,-99.99,,,-99.99,664.679993,,2013-08-23 18:42:00,
2013-08-23 13:52:00,74.0,59.0,-100.00,ENE,67,2.0,-999.0,58,-99.99,,,-99.99,664.679993,,2013-08-23 18:52:00,
2013-08-23 14:00:00,77.0,56.0,-100.00,East,90,1.0,-999.0,48,-99.99,,,-99.99,806.200012,,2013-08-23 19:00:00,
2013-08-23 14:42:00,77.0,56.0,-100.00,East,90,1.0,-999.0,48,-99.99,,,-99.99,806.200012,,2013-08-23 19:42:00,
2013-08-23 14:52:00,77.0,56.0,-100.00,East,90,1.0,-999.0,48,-99.99,,,-99.99,806.200012,,2013-08-23 19:52:00,
2013-08-23 16:00:00,77.0,55.0,-100.00,SE,135,3.0,-999.0,47,-99.99,,,-99.99,649.599976,,2013-08-23 21:00:00,
2013-08-23 16:44:00,77.0,55.0,-100.00,SE,135,3.0,-999.0,47,-99.99,,,-99.99,649.599976,,2013-08-23 21:44:00,
2013-08-23 16:54:00,77.0,55.0,-100.00,SE,135,3.0,-999.0,47,-99.99,,,-99.99,649.599976,,2013-08-23 21:54:00,
2013-08-23 17:00:00,76.0,55.0,-100.00,SE,135,2.0,-999.0,48,-99.99,,,-99.99,508.079987,,2013-08-23 22:00:00,
2013-08-23 17:43:00,76.0,55.0,-100.00,SE,135,2.0,-999.0,48,-99.99,,,-99.99,508.079987,,2013-08-23 22:43:00,
2013-08-23 17:53:00,76.0,55.0,-100.00,SE,135,2.0,-999.0,48,-99.99,,,-99.99,508.079987,,2013-08-23 22:53:00,
2013-08-23 18:00:00,73.0,55.0,-100.00,SE,135,2.0,-999.0,53,-99.99,,,-99.99,96.279999,,2013-08-23 23:00:00,
2013-08-23 18:43:00,73.0,55.0,-100.00,SE,135,2.0,-999.0,53,-99.99,,,-99.99,96.279999,,2013-08-23 23:43:00,
2013-08-23 18:54:00,73.0,55.0,-100.00,SE,135,2.0,-999.0,53,-99.99,,,-99.99,96.279999,,2013-08-23 23:54:00,
2013-08-23 19:00:00,67.0,57.0,-100.00,SE,135,0.0,-999.0,69,-99.99,,,-99.99,53.360001,,2013-08-24 00:00:00,
2013-08-23 19:43:00,67.0,57.0,-100.00,SE,135,0.0,-999.0,69,-99.99,,,-99.99,53.360001,,2013-08-24 00:43:00,
2013-08-23 19:53:00,67.0,57.0,-100.00,SE,135,0.0,-999.0,69,-99.99,,,-99.99,53.360001,,2013-08-24 00:53:00,
2013-08-23 21:00:00,56.0,54.0,-100.00,SSW,202,0.0,-999.0,93,-99.99,,,-99.99,0.000000,,2013-08-24 02:00:00,
2013-08-23 21:52:00,56.0,54.0,-100.00,SSW,202,0.0,-999.0,93,-99.99,,,-99.99,0.000000,,2013-08-24 02:52:00,
2013-08-23 23:00:00,55.0,54.0,-100.00,SSE,157,0.0,-999.0,95,-99.99,,,-99.99,0.000000,,2013-08-24 04:00:00,
2013-08-23 23:44:00,55.0,54.0,-100.00,SSE,157,0.0,-999.0,95,-99.99,,,-99.99,0.000000,,2013-08-24 04:44:00,
2013-08-23 23:54:00,55.0,54.0,-100.00,SSE,157,0.0,-999.0,95,-99.99,,,-99.99,0.000000,,2013-08-24 04:54:00,